Regional Weather Roundup
Issued by NWS

Home | Current Version | Previous Version | Text Only | Print | Product List | Glossary On
Versions: 1 2 3 4 5 6 7 8 9 10 11 12 13 14 15 16 17 18 19 20 21 22 23 24 25 26 27 28 29 30 31 32 33 34 35 36 37 38 39 40 41 42 43 44 45 46 47 48 49 50
000
ASUS43 KMKX 260511
RWRWI

WISCONSIN REGIONAL WEATHER ROUNDUP
NATIONAL WEATHER SERVICE MILWAUKEE/SULLIVAN WI
1200 AM CDT WED APR 26 2017

NOTE: "FAIR" INDICATES FEW OR NO CLOUDS BELOW 12,000 FEET WITH NO
SIGNIFICANT WEATHER AND/OR OBSTRUCTIONS TO VISIBILITY.

WIZ001-002-006>008-014>016-023>028-260600-
NORTHWEST WISCONSIN

CITY           SKY/WX    TMP DP  RH WIND       PRES   REMARKS
SUPERIOR ARPT  LGT RAIN  37  36  96 NE16G23   29.73F WCI  28
ASHLAND        LGT RAIN  33  31  92 NE16G28   29.75F WCI  23
HAYWARD        LGT RAIN  36  33  89 NE14G24   29.65F WCI  27
SIREN          LGT RAIN  39  37  93 NE14G21   29.62F WCI  30
CUMBERLAND     LGT RAIN  41  37  87 NE13      29.59F
RICE LAKE      CLOUDY    43  42  93 N14       29.60R
CHETEK         LGT RAIN  44  43  95 NE7G18    29.58S
LADYSMITH      CLOUDY    43  41  91 NE7       29.63S
EAU CLAIRE     LGT RAIN  55  54  96 NE13      29.52F
MENOMONIE      RAIN      56  54  94 N7        29.54F
NEW RICHMOND   CLOUDY    46  45  95 NE14G21   29.55F
OSCEOLA        LGT RAIN  45  45 100 N12       29.59F
$$

WIZ003>005-009-010-017-018-260600-
NORTH CENTRAL WISCONSIN

CITY           SKY/WX    TMP DP  RH WIND       PRES   REMARKS
MANITOWISH WTR CLOUDY    35  35 100 NE12G17   29.65F WCI  27
ARBOR VITAE    CLOUDY    42  40  93 N6        29.64S
WOODRUFF       CLOUDY    42  40  93 N6        29.64S
RHINELANDER    LGT RAIN  54  54 100 NE8       29.60F
EAGLE RIVER    LGT RAIN  42  41  99 N9        29.63F
LAND O LAKES   CLOUDY    38  37  97 N12       29.68F WCI  30
PHILLIPS       CLOUDY    42  42  99 NE10      29.63S
TOMAHAWK       RAIN      53  51  94 N8        29.60F
MEDFORD        LGT RAIN  53  52  97 NE10      29.55F
MERRILL        RAIN      54  54 100 NE5       29.58F
$$

WIZ029-030-035-036-043>047-260600-
CENTRAL WISCONSIN

CITY           SKY/WX    TMP DP  RH WIND       PRES   REMARKS
WAUSAU         LGT RAIN  57  51  80 E9        29.54F
MOSINEE        DRIZZLE   55  52  88 NE9       29.55F
MARSHFIELD     CLOUDY    56  51  84 NE10      29.51F
STEVENS POINT  CLOUDY    58  50  74 NE7       29.52F
WAUPACA        CLOUDY    64  53  65 E14       29.53F
WAUTOMA        CLOUDY    63  53  70 E6        29.51F
WISC RAPIDS    CLOUDY    62  52  69 E7        29.50F
CAMP DOUGLAS   CLOUDY    58  51  78 CALM      29.48F
$$

WIZ011>013-019>022-031-037>040-048>050-260600-
NORTHEAST WISCONSIN

CITY           SKY/WX    TMP DP  RH WIND       PRES   REMARKS
ANTIGO         RAIN      55  50  83 E6        29.60F
SHAWANO        RAIN      60  54  79 E8        29.58F
OCONTO         CLOUDY    51  46  83 E7        29.60F
STURGEON BAY   CLOUDY    53  47  79 E7        29.63F
GREEN BAY      CLOUDY    61  53  75 E9        29.58F
MANITOWOC      CLOUDY    52  47  83 NE3       29.60F
APPLETON       CLOUDY    61  48  63 SE13      29.54F
CLINTONVILLE   DRIZZLE   61  52  72 E8        29.56F
OSHKOSH        CLOUDY    63  52  67 SE13      29.53F
$$

WIZ032>034-041-042-053>061-260600-
SOUTHWEST WISCONSIN

CITY           SKY/WX    TMP DP  RH WIND       PRES   REMARKS
LA CROSSE      CLOUDY    58  54  86 NW7       29.47F
SPARTA         CLOUDY    56  53  88 CALM      29.48F
VIROQUA        CLOUDY    58  50  74 CALM      29.48R
BOSCOBEL       LGT RAIN  61  54  77 CALM      29.47R
PRAIRIE DU CHI LGT RAIN  59  56  91 CALM      29.47S
PLATTEVILLE    CLOUDY    65  50  57 S6        29.47R
$$

WIZ056-057-062-063-064-067-068-260600-
SOUTH CENTRAL WISCONSIN

CITY           SKY/WX    TMP DP  RH WIND       PRES   REMARKS
REEDSBURG      CLOUDY    64  51  63 CALM      29.47F
BARABOO/DELLS  CLOUDY    64  49  57 SE9       29.47F
LONE ROCK      CLOUDY    63  53  70 E8        29.45F
MINERAL POINT  LGT RAIN  64  48  55 SE8       29.46F
MADISON        CLOUDY    66  50  56 SE12      29.48F
MIDDLETON      CLOUDY    66  51  57 SE7       29.48F
WATERTOWN      CLOUDY    63  53  69 SE8       29.51F
MONROE         CLOUDY    64  48  55 SE12      29.47F
JANESVILLE     CLOUDY    68  50  52 SE10      29.49F
$$

WIZ051-052-058>065-066-070>072-260600-
SOUTHEAST WISCONSIN

CITY           SKY/WX    TMP DP  RH WIND       PRES   REMARKS
MILWAUKEE      CLOUDY    60  51  72 SE14      29.56F
WAUKESHA       MOCLDY    61  50  67 SE12      29.55F
MILWAUKEE/TIMM CLOUDY    61  48  63 SE7       29.56F
RACINE         MOCLDY    58  49  72 SE9       29.58F
KENOSHA        MOCLDY    61  51  70 SE10      29.55F
FOND DU LAC    CLOUDY    63  50  62 SE17      29.53F
SHEBOYGAN      CLOUDY    53  49  86 NE5       29.58F
WEST BEND      CLOUDY    59  50  72 SE10G16   29.56F
JUNEAU         CLOUDY    62  52  70 E12G17    29.53F
$$

LSZ147-162-260600-
LAKE SUPERIOR

STATION/POSITION TIME  TEMP    WIND        PRES    WAVE
                       AIR SEA DIR/SP/G            HT/PER
                 (UTC) (F)     (DEG/KT/KT) (MB)    (FT/S)
DEVILS ISLAND    0500   33      60/ 29/ 32 1009.3F
SAXON HARBOR     0430   35      40/ 21/ 25 1007.5F
$$

LMZ867-665-643>646-260600-
LAKE MICHIGAN

STATION/POSITION TIME  TEMP    WIND        PRES    WAVE
                       AIR SEA DIR/SP/G            HT/PER
                 (UTC) (F)     (DEG/KT/KT) (MB)    (FT/S)
CHAMBERS ISLAND  0440   40      10/ 10/ 12 1004.1F
N MID LAKE BUOY  0450   40 37   90/  6/  8 1005.4F   2/ 4
NORTHPORT PIER   0440   43      50/  4/  8 1004.4F
KEWAUNEE LAKESHO 0448   50      20/  5/  6 1002.7F
SHEBOYGAN LAKESH 0500   50     170/  2/  3 1001.4F
PORT WASHINGTON  0440   55     200/  2/  4 1002.7F
MILWAUKEE LAKESH 0430   52     150/  7/  9   N/A
S MID LAKE BUOY  0350   49 42   80/ 10/ 10 1002.7F   0
KENOSHA   LAKESH 0500   52     160/  8/ 10 1001.4
$$

TC  - TEMPERATURE IN CELSIUS
VSB - VISIBILITY IN STATUTE MILES
WCI - WIND CHILL INDEX
HX  - HEAT INDEX





USA.gov is the U.S. government's official web portal to all federal, state and local government web resources and services.